Regional Weather Roundup
Issued by NWS

Home | Current Version | Previous Version | Text Only | Print | Product List | Glossary Off
Versions: 1 2 3 4 5 6 7 8 9 10 11 12 13 14 15 16 17 18 19 20 21 22 23 24 25 26 27 28 29 30 31 32 33 34 35 36 37 38 39 40 41 42 43 44 45 46 47 48 49 50

000
ASUS43 KTOP 010559
RWRKS

WEATHER ROUNDUP FOR KANSAS
NATIONAL WEATHER SERVICE GOODLAND KS
100 AM CDT SAT AUG 01 2015

NOTE:  "FAIR" INDICATES FEW OR NO CLOUDS BELOW 12,000 FEET WITH NO
SIGNIFICANT WEATHER AND/OR OBSTRUCTIONS TO VISIBILITY.

KSZ001>006-013>018-027>032-041>047-010700-
NORTHWEST KANSAS

CITY           SKY/WX    TMP DP  RH WIND       PRES   REMARKS
GOODLAND       CLEAR     72  58  61 SW14      30.20R
6HR MIN TEMP:  71; 6HR MAX TEMP:  88;

HAYS           CLEAR     70  61  73 S8        30.12S
HILL CITY      CLEAR     75  64  68 SW7       30.12S
6HR MIN TEMP:  74; 6HR MAX TEMP:  92;

RUSSELL        CLEAR     72  68  87 S9        30.10S
6HR MIN TEMP:  72; 6HR MAX TEMP:  91;

$$

KSZ061>065-074>080-084>089-010700-
SOUTHWEST KANSAS

CITY           SKY/WX    TMP DP  RH WIND       PRES   REMARKS
DODGE CITY     CLEAR     70  67  90 S6        30.16S
6HR MIN TEMP:  70; 6HR MAX TEMP:  87;

ELKHART          N/A     68  63  84 SE7         N/A
GARDEN CITY    CLEAR     69  66  90 S7        30.17R
6HR MIN TEMP:  69; 6HR MAX TEMP:  87;

GREAT BEND     CLEAR     72  66  83 S6        30.12S
LIBERAL        CLOUDY    72  64  78 SE6       30.17F
PRATT          CLEAR     72  70  94 S5        30.14S
$$

KSZ066>073-081>083-090>101-010700-
SOUTHEAST KANSAS

CITY           SKY/WX    TMP DP  RH WIND       PRES   REMARKS
CHANUTE        PTCLDY    71  69  93 SW3       30.09S
6HR MIN TEMP:  71; 6HR MAX TEMP:  89;

COFFEYVILLE    PTCLDY    72  70  93 CALM      30.08S
6HR MIN TEMP:  71; 6HR MAX TEMP:  86;

HUTCHINSON     CLEAR     76  71  85 S6        30.10F
6HR MIN TEMP:  71; 6HR MAX TEMP:  89;

MEDICINE LODGE   N/A     75  72  90 S7        30.09F
NEWTON         CLEAR     75  68  78 S6        30.12F
PARSONS        PTCLDY    71  70  96 CALM      30.10S
6HR MIN TEMP:  70; 6HR MAX TEMP:  87;

WICHITA INTL   CLEAR     76  71  85 S6        30.10R
6HR MIN TEMP:  76; 6HR MAX TEMP:  89;

WICHITA JABRA  CLEAR     76  72  87 S7        30.10S
6HR MIN TEMP:  76; 6HR MAX TEMP:  89;

WINFIELD       CLEAR     75  73  93 SE3       30.10F
6HR MIN TEMP:  75; 6HR MAX TEMP:  86;

$$

KSZ007>012-019>026-033>040-048>060-102>105-010700-
NORTHEAST KANSAS

CITY           SKY/WX    TMP DP  RH WIND       PRES   REMARKS
CONCORDIA      PTCLDY    69  64  84 S3        30.09R
6HR MIN TEMP:  68; 6HR MAX TEMP:  90; 6HR PCP: TRACE;

EMPORIA        CLEAR     72  69  90 S8        30.09R
6HR MIN TEMP:  72; 6HR MAX TEMP:  89;

LAWRENCE       CLEAR     69  67  93 CALM      30.07S
6HR MIN TEMP:  69; 6HR MAX TEMP:  89;

MANHATTAN      CLEAR     72  70  93 CALM      30.07S
6HR MIN TEMP:  72; 6HR MAX TEMP:  90;

OLATHE IND     CLEAR     72  67  84 S6        30.09R
6HR MIN TEMP:  72; 6HR MAX TEMP:  87;

OLATHE EXE     CLEAR     74  66  76 CALM      30.08S
6HR MIN TEMP:  73; 6HR MAX TEMP:  87;

SALINA         PTCLDY    74  68  81 CALM      30.08S
6HR MIN TEMP:  73; 6HR MAX TEMP:  91;

TOPEKA BILLARD CLEAR     75  72  90 CALM      30.08R
6HR MIN TEMP:  74; 6HR MAX TEMP:  90;

TOPEKA FORBES  CLEAR     74  69  85 SE3       30.08S
6HR MIN TEMP:  74; 6HR MAX TEMP:  90;

$$


USA.gov is the U.S. government's official web portal to all federal, state and local government web resources and services.